This is the latest recevied weather packets stored in our database for station/object WA9LT. If no packets are shown the sender has not sent any weather packets the latest 1 day(s).
| Time | Temp. | Humidity | Pressure | Rain* | Wind** | Luminosity | Snow |
|---|---|---|---|---|---|---|---|
| 1777998297 | 11.67° C | 69% | 1016.3 hPa | 0 mm | 0.45 m/s, 311° | - | - |
| 1777998046 | 11.67° C | 69% | 1016.3 hPa | 0 mm | 0.45 m/s, 311° | - | - |
| 1777997147 | 11.67° C | 69% | 0 hPa | 0 mm | 2.24 m/s, 12° | - | - |
| 1777996246 | 11.67° C | 69% | 1016.3 hPa | 0 mm | 2.24 m/s, 334° | - | - |
| 1777995347 | 11.67° C | 69% | 0 hPa | 0 mm | 1.34 m/s, 32° | - | - |
| 1777994773 | 11.67° C | 69% | 0 hPa | 0 mm | 2.24 m/s, 312° | - | - |
| 1777994446 | 11.67° C | 69% | 0 hPa | 0 mm | 2.24 m/s, 312° | - | - |
| 1777993547 | 11.67° C | 69% | 0 hPa | 0 mm | 1.79 m/s, 349° | - | - |
| 1777992893 | 11.67° C | 69% | 0 hPa | 0 mm | 1.79 m/s, 8° | - | - |
| 1777992647 | 11.67° C | 69% | 0 hPa | 0 mm | 1.79 m/s, 8° | - | - |
| 1777991747 | 11.11° C | 69% | 0 hPa | 0 mm | 1.34 m/s, 8° | - | - |
| 1777990847 | 11.11° C | 69% | 1016.3 hPa | 0 mm | 2.24 m/s, 10° | - | - |
| 1777989948 | 11.11° C | 69% | 1016.3 hPa | 0 mm | 1.34 m/s, 48° | - | - |
| 1777989047 | 10.56° C | 69% | 0 hPa | 0 mm | 1.79 m/s, 358° | - | - |
| 1777988147 | 9.44° C | 69% | 0 hPa | 0 mm | 0.45 m/s, 327° | - | - |
| 1777987492 | 9.44° C | 69% | 1016.3 hPa | 0 mm | 0 m/s | - | - |
| 1777987247 | 9.44° C | 69% | 1016.3 hPa | 0 mm | 0 m/s | - | - |
| 1777986346 | 9.44° C | 69% | 0 hPa | 0 mm | 0 m/s | - | - |
| 1777985691 | 8.33° C | 69% | 0 hPa | 0 mm | 0.89 m/s, 231° | - | - |
| 1777985448 | 8.33° C | 69% | 0 hPa | 0 mm | 0.89 m/s, 231° | - | - |
| 1777984548 | 8.89° C | 69% | 1016.3 hPa | 0 mm | 0.89 m/s, 200° | - | - |
| 1777983647 | 8.33° C | 69% | 0 hPa | 0 mm | 0 m/s | - | - |
| 1777982748 | 7.78° C | 69% | 0 hPa | 0 mm | 0 m/s | - | - |
| 1777982040 | 7.78° C | 69% | 0 hPa | 0 mm | 0 m/s | - | - |
| 1777981847 | 7.78° C | 69% | 0 hPa | 0 mm | 0 m/s | - | - |
* Rain latest hour (hover to see other rain measurements)
** Current wind speed in m/s (hover to see current wind gust speed)